Crookhaven, Ireland

10:17 PM GMT on January 22, 2019 (GMT +0000)
Crookhaven

Weather History for 03951 - June, 2014

Change the Weather History Date:

Saturday, June 21, 2014

  Actual Average Record
Temperature  
Mean Temperature 59 °F -  
Max Temperature 65 °F - - ()
Min Temperature 53 °F - - ()
Degree Days  
Heating Degree Days 6    
Growing Degree Days 9 (Base 50)    
Moisture  
Dew Point 54 °F    
Average Humidity 74    
Maximum Humidity 96    
Minimum Humidity 50    
Precipitation  
Precipitation 0.00 in - - ()
Sea Level Pressure  
Sea Level Pressure 30.21 in    
Wind  
Wind Speed 8 mph ()    
Max Wind Speed 13 mph    
Max Gust Speed -    
Visibility 13.1 miles    
Events      
T = Trace of Precipitation, MM = Missing Value Source: Averaged Metar Reports

Daily Weather History Graph

Daily Weather History Graph

Search for Another Location

Airport or City:

Astronomy

Jun. 21, 2014 Rise Set
Actual Time 5:21 AM IST 9:59 PM IST
Civil Twilight 4:33 AM IST 10:47 PM IST
Nautical Twilight 3:19 AM IST 12:01 AM IST
Astronomical Twilight 2:13 AM IST 1:08 AM IST
Moon 2:03 AM IST (6/21) 3:52 PM IST (6/21)
Length of Visible Light 18h 13m
Length of Day
16h 38m
Waning Crescent, 32% of the Moon is Illuminated
Jun 21
Waning Crescent
Jun 27
New
Jul 5
First Quarter
Jul 12
Full
Jul 19
Last Quarter

Hourly Weather History & Observations

Time (IST) Temp. Dew Point Humidity Pressure Visibility Wind Dir Wind Speed Gust Speed Precip Events Conditions
12:00 AM 57 °F 54 °F 88% 30.23 in 17 mi ENE 6.7 mph - -   Mostly Cloudy
1:00 AM 57 °F 54 °F 87% 30.24 in 16 mi ENE 8.9 mph - -   Mostly Cloudy
2:00 AM 56 °F 54 °F 89% 30.23 in 16 mi ENE 6.7 mph - -  
3:00 AM 54 °F 52 °F 92% 30.23 in 7 mi ENE 8.9 mph - -  
4:00 AM 54 °F 53 °F 94% 30.22 in 8 mi NE 8.9 mph - -   Partly Cloudy
5:00 AM 53 °F 52 °F 96% 30.20 in 9 mi NE 8.9 mph - -   Scattered Clouds
6:00 AM 54 °F 52 °F 92% 30.21 in 11 mi ENE 8.9 mph - -   Overcast
7:00 AM 56 °F 54 °F 90% 30.21 in 16 mi ENE 6.7 mph - -   Overcast
8:00 AM 58 °F 53 °F 78% 30.21 in 22 mi NE 13.4 mph - -   Partly Cloudy
9:00 AM 62 °F 53 °F 65% 30.22 in 22 mi NE 13.4 mph - -  
10:00 AM 64 °F 52 °F 56% 30.22 in 25 mi NE 13.4 mph - -  
11:00 AM 63 °F 55 °F 67% 30.22 in 25 mi East 8.9 mph - -   Mostly Cloudy
12:00 PM 62 °F 55 °F 70% 30.22 in 22 mi SE 8.9 mph - -   Mostly Cloudy
1:00 PM 63 °F 55 °F 67% 30.23 in 25 mi SE 11.2 mph - -   Mostly Cloudy
2:00 PM 65 °F 55 °F 62% 30.22 in 18 mi SE 8.9 mph - -   Mostly Cloudy
3:00 PM 65 °F 54 °F 59% 30.22 in 22 mi SSE 8.9 mph - -   Mostly Cloudy
4:00 PM 64 °F 54 °F 61% 30.21 in 25 mi South 6.7 mph - -   Mostly Cloudy
5:00 PM 64 °F 52 °F 57% 30.20 in 25 mi SW 4.5 mph - -   Mostly Cloudy
6:00 PM 65 °F 51 °F 50% 30.19 in 25 mi WSW 6.7 mph - -   Scattered Clouds
7:00 PM 64 °F 54 °F 62% 30.19 in 25 mi West 6.7 mph - -   Scattered Clouds
8:00 PM 62 °F 54 °F 68% 30.18 in 31 mi West 8.9 mph - -   Scattered Clouds
9:00 PM 62 °F 54 °F 67% 30.18 in 28 mi West 11.2 mph - -   Partly Cloudy
10:00 PM 60 °F 56 °F 81% 30.19 in 31 mi WNW 6.7 mph - -   Scattered Clouds
11:00 PM 60 °F 55 °F 79% 30.20 in 28 mi North 8.9 mph - -   Mostly Cloudy